Year,Month,Day,Hour,Minute,Value (Times are PST for windgust in km/hr)
2018,08,29,05,06,3.20
2018,08,29,05,07,3.20
2018,08,29,05,08,4.80
2018,08,29,05,09,3.20
2018,08,29,05,10,3.20
2018,08,29,05,11,3.20
2018,08,29,05,12,1.60
2018,08,29,06,07,3.20
2018,08,29,06,08,3.20
2018,08,29,06,09,3.20
2018,08,29,06,57,4.80
2018,08,29,06,58,6.40
2018,08,29,06,59,4.80
2018,08,29,07,00,3.20
2018,08,29,07,01,1.60
2018,08,29,07,02,1.60
2018,08,29,07,03,1.60
2018,08,29,07,08,1.60
2018,08,29,07,09,1.60
2018,08,29,07,49,1.60
2018,08,29,07,50,3.20
2018,08,29,07,59,1.60
2018,08,29,08,35,3.20
2018,08,29,08,36,4.80
2018,08,29,08,37,1.60
2018,08,29,08,52,4.80
2018,08,29,08,53,4.80
2018,08,29,08,54,1.60
2018,08,29,08,55,4.80
2018,08,29,08,56,8.10
2018,08,29,08,57,6.40
2018,08,29,08,58,6.40
2018,08,29,08,59,9.60
2018,08,29,09,00,9.60
2018,08,29,09,01,11.30
2018,08,29,09,02,8.10
2018,08,29,09,03,6.40
2018,08,29,09,04,11.30
2018,08,29,09,05,8.10
2018,08,29,09,06,11.30
2018,08,29,09,07,6.40
2018,08,29,09,08,8.10
2018,08,29,09,09,8.10
2018,08,29,09,10,20.90
2018,08,29,09,11,9.60
2018,08,29,09,12,8.10
2018,08,29,09,13,9.60
2018,08,29,09,14,8.10
2018,08,29,09,15,4.80
2018,08,29,09,16,8.10
2018,08,29,09,17,6.40
2018,08,29,09,18,6.40
2018,08,29,09,19,4.80
2018,08,29,09,20,6.40
2018,08,29,09,21,8.10
2018,08,29,09,22,6.40
2018,08,29,09,23,9.60
2018,08,29,09,24,9.60
2018,08,29,09,25,8.10
2018,08,29,09,26,6.40
2018,08,29,09,27,6.40
2018,08,29,09,28,11.30
2018,08,29,09,29,9.60
2018,08,29,09,30,9.60
2018,08,29,09,31,9.60
2018,08,29,09,32,6.40
2018,08,29,09,33,9.60
2018,08,29,09,34,6.40
2018,08,29,09,35,4.80
2018,08,29,09,36,4.80
2018,08,29,09,37,6.40
2018,08,29,09,38,8.10
2018,08,29,09,39,8.10
2018,08,29,09,40,8.10
2018,08,29,09,41,4.80
2018,08,29,09,42,4.80
2018,08,29,09,43,6.40
2018,08,29,09,44,6.40
2018,08,29,09,45,6.40
2018,08,29,09,46,6.40
2018,08,29,09,47,4.80
2018,08,29,09,48,4.80
2018,08,29,09,49,6.40
2018,08,29,09,50,6.40
2018,08,29,09,51,6.40
2018,08,29,09,52,4.80
2018,08,29,09,55,3.20
2018,08,29,09,56,4.80
2018,08,29,09,57,3.20
2018,08,29,09,58,3.20
2018,08,29,09,59,4.80
2018,08,29,10,00,4.80
2018,08,29,10,01,4.80
2018,08,29,10,02,3.20
2018,08,29,10,03,4.80
2018,08,29,10,04,6.40
2018,08,29,10,05,6.40
2018,08,29,10,06,3.20
2018,08,29,10,07,6.40
2018,08,29,10,08,4.80
2018,08,29,10,09,3.20
2018,08,29,10,10,1.60
2018,08,29,10,27,3.20
2018,08,29,10,28,4.80
2018,08,29,10,29,4.80
2018,08,29,10,30,4.80
2018,08,29,10,31,4.80
2018,08,29,10,32,3.20
2018,08,29,10,33,6.40
2018,08,29,10,34,4.80
2018,08,29,10,35,9.60
2018,08,29,10,36,4.80
2018,08,29,10,37,4.80
2018,08,29,10,38,8.10
2018,08,29,10,39,4.80
2018,08,29,10,40,4.80
2018,08,29,10,41,3.20
2018,08,29,10,42,3.20
2018,08,29,10,43,3.20
2018,08,29,10,44,4.80
2018,08,29,10,45,4.80
2018,08,29,10,46,4.80
2018,08,29,10,47,3.20
2018,08,29,10,48,3.20
2018,08,29,10,49,3.20
2018,08,29,10,50,3.20
2018,08,29,10,51,3.20
2018,08,29,10,52,6.40
2018,08,29,10,53,3.20
2018,08,29,10,54,4.80
2018,08,29,10,55,3.20
2018,08,29,10,57,3.20
2018,08,29,10,58,4.80
2018,08,29,10,59,4.80
2018,08,29,11,00,4.80
2018,08,29,11,01,4.80
2018,08,29,11,02,4.80
2018,08,29,11,03,3.20
2018,08,29,11,04,1.60
2018,08,29,11,05,3.20
2018,08,29,11,10,6.40
2018,08,29,11,11,3.20
2018,08,29,11,12,4.80
2018,08,29,11,13,3.20
2018,08,29,11,16,4.80
2018,08,29,11,17,8.10
2018,08,29,11,18,4.80
2018,08,29,11,19,4.80
2018,08,29,11,20,11.30
2018,08,29,11,21,6.40
2018,08,29,11,22,1.60
2018,08,29,11,23,3.20
2018,08,29,11,24,3.20
2018,08,29,11,25,3.20
2018,08,29,11,26,4.80
2018,08,29,11,27,3.20
2018,08,29,11,28,3.20
2018,08,29,11,29,4.80
2018,08,29,11,30,4.80
2018,08,29,11,31,6.40
2018,08,29,11,32,9.60
2018,08,29,11,33,6.40
2018,08,29,11,34,8.10
2018,08,29,11,35,4.80
2018,08,29,11,36,3.20
2018,08,29,11,37,4.80
2018,08,29,11,38,4.80
2018,08,29,11,39,4.80
2018,08,29,11,40,6.40
2018,08,29,11,41,6.40
2018,08,29,11,42,6.40
2018,08,29,11,43,6.40
2018,08,29,11,44,4.80
2018,08,29,11,45,1.60
2018,08,29,11,47,8.10
2018,08,29,11,48,8.10
2018,08,29,11,49,6.40
2018,08,29,11,50,6.40
2018,08,29,11,51,4.80
2018,08,29,11,52,1.60
2018,08,29,11,53,6.40
2018,08,29,11,54,6.40
2018,08,29,11,55,17.70
2018,08,29,11,56,8.10
2018,08,29,11,57,4.80
2018,08,29,11,58,6.40
2018,08,29,11,59,8.10
2018,08,29,12,00,9.60
2018,08,29,12,01,16.10
2018,08,29,12,02,6.40
2018,08,29,12,03,11.30
2018,08,29,12,04,14.50
2018,08,29,12,05,9.60
2018,08,29,12,06,6.40
2018,08,29,12,07,8.10
2018,08,29,12,08,6.40
2018,08,29,12,09,11.30
2018,08,29,12,10,6.40
2018,08,29,12,11,4.80
2018,08,29,12,12,4.80
2018,08,29,12,13,6.40
2018,08,29,12,14,6.40
2018,08,29,12,15,8.10
2018,08,29,12,16,12.90
2018,08,29,12,17,12.90
2018,08,29,12,18,11.30
2018,08,29,12,19,9.60
2018,08,29,12,20,8.10
2018,08,29,12,21,14.50
2018,08,29,12,22,8.10
2018,08,29,12,23,16.10
2018,08,29,12,24,9.60
2018,08,29,12,25,8.10
2018,08,29,12,26,8.10
2018,08,29,12,27,11.30
2018,08,29,12,28,8.10
2018,08,29,12,29,6.40
2018,08,29,12,30,9.60
2018,08,29,12,31,8.10
2018,08,29,12,32,8.10
2018,08,29,12,33,11.30
2018,08,29,12,34,14.50
2018,08,29,12,35,9.60
2018,08,29,12,36,11.30
2018,08,29,12,37,8.10
2018,08,29,12,38,9.60
2018,08,29,12,39,16.10
2018,08,29,12,40,11.30
2018,08,29,12,41,9.60
2018,08,29,12,42,14.50
2018,08,29,12,43,11.30
2018,08,29,12,44,22.50
2018,08,29,12,45,11.30
2018,08,29,12,46,16.10
2018,08,29,12,47,16.10
2018,08,29,12,48,16.10
2018,08,29,12,49,9.60
2018,08,29,12,50,17.70
2018,08,29,12,51,11.30
2018,08,29,12,52,16.10
2018,08,29,12,53,9.60
2018,08,29,12,54,9.60
2018,08,29,12,55,19.30
2018,08,29,12,56,17.70
2018,08,29,12,57,20.90
2018,08,29,12,58,19.30
2018,08,29,12,59,11.30
2018,08,29,13,00,17.70
2018,08,29,13,01,11.30
2018,08,29,13,02,11.30
2018,08,29,13,03,17.70
2018,08,29,13,04,17.70
2018,08,29,13,05,22.50
2018,08,29,13,06,17.70
2018,08,29,13,07,22.50
2018,08,29,13,08,17.70
2018,08,29,13,09,16.10
2018,08,29,13,10,19.30
2018,08,29,13,11,14.50
2018,08,29,13,12,19.30
2018,08,29,13,13,11.30
2018,08,29,13,14,11.30
2018,08,29,13,15,17.70
2018,08,29,13,16,22.50
2018,08,29,13,17,14.50
2018,08,29,13,18,16.10
2018,08,29,13,19,16.10
2018,08,29,13,20,19.30
2018,08,29,13,21,16.10
2018,08,29,13,22,16.10
2018,08,29,13,23,9.60
2018,08,29,13,24,9.60
2018,08,29,13,25,14.50
2018,08,29,13,26,19.30
2018,08,29,13,27,16.10
2018,08,29,13,28,16.10
2018,08,29,13,29,16.10
2018,08,29,13,30,12.90
2018,08,29,13,31,19.30
2018,08,29,13,32,20.90
2018,08,29,13,33,11.30
2018,08,29,13,34,11.30
2018,08,29,13,35,14.50
2018,08,29,13,36,11.30
2018,08,29,13,37,11.30
2018,08,29,13,38,19.30
2018,08,29,13,39,19.30
2018,08,29,13,40,19.30
2018,08,29,13,41,16.10
2018,08,29,13,42,20.90
2018,08,29,13,43,11.30
2018,08,29,13,44,12.90
2018,08,29,13,45,11.30
2018,08,29,13,46,25.70
2018,08,29,13,47,22.50
2018,08,29,13,48,11.30
2018,08,29,13,49,19.30
2018,08,29,13,50,20.90
2018,08,29,13,51,12.90
2018,08,29,13,52,16.10
2018,08,29,13,53,19.30
2018,08,29,13,54,16.10
2018,08,29,13,55,19.30
2018,08,29,13,56,19.30
2018,08,29,13,57,17.70
2018,08,29,13,58,17.70
2018,08,29,13,59,16.10
2018,08,29,14,00,12.90
2018,08,29,14,01,16.10
2018,08,29,14,02,22.50
2018,08,29,14,03,22.50
2018,08,29,14,04,8.10
2018,08,29,14,05,12.90
2018,08,29,14,06,17.70
2018,08,29,14,07,25.70
2018,08,29,14,08,22.50
2018,08,29,14,09,20.90
2018,08,29,14,10,33.80
2018,08,29,14,11,19.30
2018,08,29,14,12,24.20
2018,08,29,14,13,20.90
2018,08,29,14,14,37.00
2018,08,29,14,15,24.20
2018,08,29,14,16,27.40
2018,08,29,14,17,24.20
2018,08,29,14,18,22.50
2018,08,29,14,19,27.40
2018,08,29,14,20,25.70
2018,08,29,14,21,22.50
2018,08,29,14,22,24.20
2018,08,29,14,23,20.90
2018,08,29,14,24,16.10
2018,08,29,14,25,29.00
2018,08,29,14,26,22.50
2018,08,29,14,27,22.50
2018,08,29,14,28,17.70
2018,08,29,14,29,16.10
2018,08,29,14,30,17.70
2018,08,29,14,31,24.20
2018,08,29,14,32,22.50
2018,08,29,14,33,19.30
2018,08,29,14,34,19.30
2018,08,29,14,35,22.50
2018,08,29,14,36,17.70
2018,08,29,14,37,22.50
2018,08,29,14,38,20.90
2018,08,29,14,39,27.40
2018,08,29,14,40,27.40
2018,08,29,14,41,27.40
2018,08,29,14,42,24.20
2018,08,29,14,43,20.90
2018,08,29,14,44,16.10
2018,08,29,14,45,16.10
2018,08,29,14,46,14.50
2018,08,29,14,47,17.70
2018,08,29,14,48,14.50
2018,08,29,14,49,17.70
2018,08,29,14,50,12.90
2018,08,29,14,51,9.60
2018,08,29,14,52,11.30
2018,08,29,14,53,16.10
2018,08,29,14,54,19.30
2018,08,29,14,55,19.30
2018,08,29,14,56,14.50
2018,08,29,14,57,8.10
2018,08,29,14,58,16.10
2018,08,29,14,59,22.50
2018,08,29,15,00,16.10
2018,08,29,15,01,22.50
2018,08,29,15,02,20.90
2018,08,29,15,03,17.70
2018,08,29,15,04,22.50
2018,08,29,15,05,20.90
2018,08,29,15,06,30.60
2018,08,29,15,07,32.20
2018,08,29,15,08,27.40
2018,08,29,15,09,12.90
2018,08,29,15,10,20.90
2018,08,29,15,11,22.50
2018,08,29,15,12,29.00
2018,08,29,15,13,35.40
2018,08,29,15,14,40.20
2018,08,29,15,15,48.30
2018,08,29,15,16,25.70
2018,08,29,15,17,19.30
2018,08,29,15,18,16.10
2018,08,29,15,19,19.30
2018,08,29,15,20,29.00
2018,08,29,15,21,20.90
2018,08,29,15,22,32.20
2018,08,29,15,23,32.20
2018,08,29,15,24,32.20
2018,08,29,15,25,37.00
2018,08,29,15,26,33.80
2018,08,29,15,27,38.60
2018,08,29,15,28,35.40
2018,08,29,15,29,20.90
2018,08,29,15,30,22.50
2018,08,29,15,31,30.60
2018,08,29,15,32,35.40
2018,08,29,15,33,38.60
2018,08,29,15,34,40.20
2018,08,29,15,35,32.20
2018,08,29,15,36,22.50
2018,08,29,15,37,29.00
2018,08,29,15,38,38.60
2018,08,29,15,39,22.50
2018,08,29,15,40,33.80
2018,08,29,15,41,24.20
2018,08,29,15,42,35.40
2018,08,29,15,43,29.00
2018,08,29,15,44,33.80
2018,08,29,15,45,30.60
2018,08,29,15,46,20.90
2018,08,29,15,47,38.60
2018,08,29,15,48,25.70
2018,08,29,15,49,17.70
2018,08,29,15,50,14.50
2018,08,29,15,51,25.70
2018,08,29,15,52,30.60
2018,08,29,15,53,17.70
2018,08,29,15,54,22.50
2018,08,29,15,55,27.40
2018,08,29,15,56,33.80
2018,08,29,15,57,22.50
2018,08,29,15,58,20.90
2018,08,29,15,59,17.70
2018,08,29,16,00,29.00
2018,08,29,16,01,19.30
2018,08,29,16,02,20.90
2018,08,29,16,03,24.20
2018,08,29,16,04,19.30
2018,08,29,16,05,20.90
2018,08,29,16,06,24.20
2018,08,29,16,07,19.30
2018,08,29,16,08,16.10
2018,08,29,16,09,20.90
2018,08,29,16,10,22.50
2018,08,29,16,11,27.40
2018,08,29,16,12,17.70
2018,08,29,16,13,17.70
2018,08,29,16,14,20.90
2018,08,29,16,15,20.90
2018,08,29,16,16,16.10
2018,08,29,16,17,17.70
2018,08,29,16,18,19.30
2018,08,29,16,19,16.10
2018,08,29,16,20,25.70
2018,08,29,16,21,22.50
2018,08,29,16,22,16.10
2018,08,29,16,23,24.20
2018,08,29,16,24,25.70
2018,08,29,16,25,14.50
2018,08,29,16,26,16.10
2018,08,29,16,27,27.40
2018,08,29,16,28,19.30
2018,08,29,16,29,11.30
2018,08,29,16,30,22.50
2018,08,29,16,31,17.70
2018,08,29,16,32,22.50
2018,08,29,16,33,16.10
2018,08,29,16,34,22.50
2018,08,29,16,35,27.40
2018,08,29,16,36,17.70
2018,08,29,16,37,19.30
2018,08,29,16,38,20.90
2018,08,29,16,39,16.10
2018,08,29,16,40,16.10
2018,08,29,16,41,27.40
2018,08,29,16,42,16.10
2018,08,29,16,43,19.30
2018,08,29,16,44,14.50
2018,08,29,16,45,17.70
2018,08,29,16,46,20.90
2018,08,29,16,47,20.90
2018,08,29,16,48,19.30
2018,08,29,16,49,17.70
2018,08,29,16,50,22.50
2018,08,29,16,51,19.30
2018,08,29,16,52,20.90
2018,08,29,16,53,24.20
2018,08,29,16,54,16.10
2018,08,29,16,55,29.00
2018,08,29,16,56,16.10
2018,08,29,16,57,27.40
2018,08,29,16,58,30.60
2018,08,29,16,59,20.90
2018,08,29,17,00,30.60
2018,08,29,17,01,20.90
2018,08,29,17,02,16.10
2018,08,29,17,03,11.30
2018,08,29,17,04,17.70
2018,08,29,17,05,24.20
2018,08,29,17,06,22.50
2018,08,29,17,07,19.30
2018,08,29,17,08,16.10
2018,08,29,17,09,17.70
2018,08,29,17,10,19.30
2018,08,29,17,11,11.30
2018,08,29,17,12,12.90
2018,08,29,17,13,19.30
2018,08,29,17,14,20.90
2018,08,29,17,15,19.30
2018,08,29,17,16,17.70
2018,08,29,17,17,16.10
2018,08,29,17,18,11.30
2018,08,29,17,19,32.20
2018,08,29,17,20,22.50
2018,08,29,17,21,19.30
2018,08,29,17,22,12.90
2018,08,29,17,23,16.10
2018,08,29,17,24,17.70
2018,08,29,17,25,19.30
2018,08,29,17,26,14.50
2018,08,29,17,27,22.50
2018,08,29,17,28,22.50
2018,08,29,17,29,17.70
2018,08,29,17,30,16.10
2018,08,29,17,31,22.50
2018,08,29,17,32,17.70
2018,08,29,17,33,9.60
2018,08,29,17,34,14.50
2018,08,29,17,35,27.40
2018,08,29,17,36,22.50
2018,08,29,17,37,25.70
2018,08,29,17,38,25.70
2018,08,29,17,39,25.70
2018,08,29,17,40,11.30
2018,08,29,17,41,19.30
2018,08,29,17,42,19.30
2018,08,29,17,43,11.30
2018,08,29,17,44,11.30
2018,08,29,17,45,14.50
2018,08,29,17,46,14.50
2018,08,29,17,47,22.50
2018,08,29,17,48,29.00
2018,08,29,17,49,24.20
2018,08,29,17,50,22.50
2018,08,29,17,51,11.30
2018,08,29,17,52,8.10
2018,08,29,17,53,4.80
2018,08,29,17,54,9.60
2018,08,29,17,55,9.60
2018,08,29,17,56,14.50
2018,08,29,17,57,19.30
2018,08,29,17,58,20.90
2018,08,29,17,59,17.70
2018,08,29,18,00,20.90
2018,08,29,18,01,22.50
2018,08,29,18,02,17.70
2018,08,29,18,03,19.30
2018,08,29,18,04,22.50
2018,08,29,18,05,20.90
2018,08,29,18,06,16.10
2018,08,29,18,07,8.10
2018,08,29,18,08,17.70
2018,08,29,18,09,20.90
2018,08,29,18,10,17.70
2018,08,29,18,11,11.30
2018,08,29,18,12,16.10
2018,08,29,18,13,27.40
2018,08,29,18,14,9.60
2018,08,29,18,15,17.70
2018,08,29,18,16,12.90
2018,08,29,18,17,19.30
2018,08,29,18,18,17.70
2018,08,29,18,19,4.80
2018,08,29,18,20,9.60
2018,08,29,18,21,14.50
2018,08,29,18,22,22.50
2018,08,29,18,23,19.30
2018,08,29,18,24,19.30
2018,08,29,18,25,17.70
2018,08,29,18,26,16.10
2018,08,29,18,27,20.90
2018,08,29,18,28,20.90
2018,08,29,18,29,19.30
2018,08,29,18,30,19.30
2018,08,29,18,31,16.10
2018,08,29,18,32,19.30
2018,08,29,18,33,17.70
2018,08,29,18,34,17.70
2018,08,29,18,35,11.30
2018,08,29,18,36,12.90
2018,08,29,18,37,11.30
2018,08,29,18,38,14.50
2018,08,29,18,39,17.70
2018,08,29,18,40,11.30
2018,08,29,18,41,19.30
2018,08,29,18,42,14.50
2018,08,29,18,43,11.30
2018,08,29,18,44,14.50
2018,08,29,18,45,11.30
2018,08,29,18,46,16.10
2018,08,29,18,47,9.60
2018,08,29,18,48,11.30
2018,08,29,18,49,20.90
2018,08,29,18,50,8.10
2018,08,29,18,51,9.60
2018,08,29,18,52,11.30
2018,08,29,18,53,22.50
2018,08,29,18,54,14.50
2018,08,29,18,55,9.60
2018,08,29,18,56,19.30
2018,08,29,18,57,8.10
2018,08,29,18,58,16.10
2018,08,29,18,59,14.50
2018,08,29,19,00,11.30
2018,08,29,19,01,8.10
2018,08,29,19,02,9.60
2018,08,29,19,03,11.30
2018,08,29,19,04,8.10
2018,08,29,19,05,8.10
2018,08,29,19,06,8.10
2018,08,29,19,07,16.10
2018,08,29,19,08,8.10
2018,08,29,19,09,14.50
2018,08,29,19,10,8.10
2018,08,29,19,11,11.30
2018,08,29,19,12,14.50
2018,08,29,19,13,9.60
2018,08,29,19,14,4.80
2018,08,29,19,15,6.40
2018,08,29,19,16,8.10
2018,08,29,19,17,6.40
2018,08,29,19,18,9.60
2018,08,29,19,19,6.40
2018,08,29,19,20,3.20
2018,08,29,19,21,4.80
2018,08,29,19,22,4.80
2018,08,29,19,23,6.40
2018,08,29,19,24,4.80
2018,08,29,19,25,4.80
2018,08,29,19,26,4.80
2018,08,29,19,27,9.60
2018,08,29,19,28,8.10
2018,08,29,19,29,6.40
2018,08,29,19,30,8.10
2018,08,29,19,31,8.10
2018,08,29,19,32,6.40
2018,08,29,19,33,6.40
2018,08,29,19,34,6.40
2018,08,29,19,35,8.10
2018,08,29,19,36,8.10
2018,08,29,19,37,8.10
2018,08,29,19,38,9.60
2018,08,29,19,39,6.40
2018,08,29,19,40,9.60
2018,08,29,19,41,9.60
2018,08,29,19,42,8.10
2018,08,29,19,43,9.60
2018,08,29,19,44,8.10
2018,08,29,19,45,8.10
2018,08,29,19,46,6.40
2018,08,29,19,47,6.40
2018,08,29,19,48,8.10
2018,08,29,19,49,8.10
2018,08,29,19,50,9.60
2018,08,29,19,51,6.40
2018,08,29,19,52,11.30
2018,08,29,19,53,4.80
2018,08,29,19,54,8.10
2018,08,29,19,55,14.50
2018,08,29,19,56,11.30
2018,08,29,19,57,14.50
2018,08,29,19,58,16.10
2018,08,29,19,59,8.10
2018,08,29,20,00,11.30
2018,08,29,20,01,9.60
2018,08,29,20,02,6.40
2018,08,29,20,03,11.30
2018,08,29,20,04,11.30
2018,08,29,20,05,11.30
2018,08,29,20,06,11.30
2018,08,29,20,07,8.10
2018,08,29,20,08,8.10
2018,08,29,20,09,19.30
2018,08,29,20,10,11.30
2018,08,29,20,11,11.30
2018,08,29,20,12,14.50
2018,08,29,20,13,4.80
2018,08,29,20,14,9.60
2018,08,29,20,15,16.10
2018,08,29,20,16,19.30
2018,08,29,20,17,14.50
2018,08,29,20,18,11.30
2018,08,29,20,19,17.70
2018,08,29,20,20,17.70
2018,08,29,20,21,11.30
2018,08,29,20,22,14.50
2018,08,29,20,23,14.50
2018,08,29,20,24,6.40
2018,08,29,20,25,8.10
2018,08,29,20,26,8.10
2018,08,29,20,27,3.20
2018,08,29,20,28,11.30
2018,08,29,20,29,9.60
2018,08,29,20,30,9.60
2018,08,29,20,31,8.10
2018,08,29,20,32,6.40
2018,08,29,20,33,4.80
2018,08,29,20,34,8.10
2018,08,29,20,35,16.10
2018,08,29,20,36,11.30
2018,08,29,20,37,8.10
2018,08,29,20,38,3.20
2018,08,29,20,39,9.60
2018,08,29,20,40,14.50
2018,08,29,20,41,9.60
2018,08,29,20,42,9.60
2018,08,29,20,43,8.10
2018,08,29,20,44,9.60
2018,08,29,20,45,9.60
2018,08,29,20,46,8.10
2018,08,29,20,47,14.50
2018,08,29,20,48,12.90
2018,08,29,20,49,17.70
2018,08,29,20,50,14.50
2018,08,29,20,51,11.30
2018,08,29,20,52,14.50
2018,08,29,20,53,11.30
2018,08,29,20,54,9.60
2018,08,29,20,55,14.50
2018,08,29,20,56,16.10
2018,08,29,20,57,9.60
2018,08,29,20,58,11.30
2018,08,29,20,59,16.10
2018,08,29,21,00,11.30
2018,08,29,21,01,9.60
2018,08,29,21,02,11.30
2018,08,29,21,03,16.10
2018,08,29,21,04,14.50
2018,08,29,21,05,11.30
2018,08,29,21,06,9.60
2018,08,29,21,07,11.30
2018,08,29,21,08,11.30
2018,08,29,21,09,11.30
2018,08,29,21,10,11.30
2018,08,29,21,11,11.30
2018,08,29,21,12,17.70
2018,08,29,21,13,16.10
2018,08,29,21,14,11.30
2018,08,29,21,15,16.10
2018,08,29,21,16,19.30
2018,08,29,21,17,17.70
2018,08,29,21,18,12.90
2018,08,29,21,19,11.30
2018,08,29,21,20,11.30
2018,08,29,21,21,16.10
2018,08,29,21,22,16.10
2018,08,29,21,23,12.90
2018,08,29,21,24,9.60
2018,08,29,21,25,22.50
2018,08,29,21,26,24.20
2018,08,29,21,27,17.70
2018,08,29,21,28,17.70
2018,08,29,21,29,17.70
2018,08,29,21,30,17.70
2018,08,29,21,31,19.30
2018,08,29,21,32,16.10
2018,08,29,21,33,19.30
2018,08,29,21,34,14.50
2018,08,29,21,35,9.60
2018,08,29,21,36,16.10
2018,08,29,21,37,9.60
2018,08,29,21,38,14.50
2018,08,29,21,39,9.60
2018,08,29,21,40,11.30
2018,08,29,21,41,17.70
2018,08,29,21,42,17.70
2018,08,29,21,43,16.10
2018,08,29,21,44,8.10
2018,08,29,21,45,8.10
2018,08,29,21,46,9.60
2018,08,29,21,47,8.10
2018,08,29,21,48,4.80
2018,08,29,21,49,3.20
2018,08,29,21,50,6.40
2018,08,29,21,51,9.60
2018,08,29,21,52,4.80
2018,08,29,21,53,1.60
2018,08,29,22,00,6.40
2018,08,29,22,01,8.10
2018,08,29,22,02,3.20
2018,08,29,22,03,3.20
2018,08,29,22,04,3.20
2018,08,29,22,05,3.20
2018,08,29,22,06,6.40
2018,08,29,22,07,6.40
2018,08,29,22,08,14.50
2018,08,29,22,09,4.80
2018,08,29,22,10,6.40
2018,08,29,22,11,6.40
2018,08,29,22,12,6.40
2018,08,29,22,13,4.80
2018,08,29,22,14,4.80
2018,08,29,22,15,9.60
2018,08,29,22,16,6.40
2018,08,29,22,17,4.80
2018,08,29,22,18,4.80
2018,08,29,22,19,3.20
2018,08,29,22,21,9.60
2018,08,29,22,22,6.40
2018,08,29,22,23,8.10
2018,08,29,22,24,6.40
2018,08,29,22,27,6.40
2018,08,29,22,28,6.40
2018,08,29,22,29,8.10
2018,08,29,22,30,4.80
2018,08,29,22,31,3.20
2018,08,29,22,32,6.40
2018,08,29,22,33,4.80
2018,08,29,22,34,4.80
2018,08,29,22,35,4.80
2018,08,29,22,36,4.80
2018,08,29,22,37,4.80
2018,08,29,22,38,3.20
2018,08,29,22,39,4.80
2018,08,29,22,40,4.80
2018,08,29,22,41,6.40
2018,08,29,22,42,3.20
2018,08,29,22,44,4.80
2018,08,29,22,45,6.40
2018,08,29,22,46,8.10
2018,08,29,22,47,4.80
2018,08,29,22,48,3.20
2018,08,29,22,49,8.10
2018,08,29,22,50,9.60
2018,08,29,22,51,8.10
2018,08,29,22,52,9.60
2018,08,29,22,53,8.10
2018,08,29,22,54,8.10
2018,08,29,22,55,8.10
2018,08,29,22,56,9.60
2018,08,29,22,57,6.40
2018,08,29,22,58,3.20
2018,08,29,22,59,6.40
2018,08,29,23,00,3.20
2018,08,29,23,01,3.20
2018,08,29,23,02,4.80
2018,08,29,23,03,8.10
2018,08,29,23,04,6.40
2018,08,29,23,05,4.80
2018,08,29,23,06,6.40
2018,08,29,23,07,4.80
2018,08,29,23,08,11.30
2018,08,29,23,09,6.40
2018,08,29,23,10,8.10
2018,08,29,23,11,4.80
2018,08,29,23,12,6.40
2018,08,29,23,13,3.20
2018,08,29,23,15,3.20
2018,08,29,23,16,4.80
2018,08,29,23,17,9.60
2018,08,29,23,18,4.80
2018,08,29,23,19,6.40
2018,08,29,23,20,9.60
2018,08,29,23,21,8.10
2018,08,29,23,22,9.60
2018,08,29,23,23,6.40
2018,08,29,23,24,4.80
2018,08,29,23,25,4.80
2018,08,29,23,26,4.80
2018,08,29,23,27,17.70
2018,08,29,23,28,11.30
2018,08,29,23,29,9.60
2018,08,29,23,30,6.40
2018,08,29,23,31,16.10
2018,08,29,23,32,9.60
2018,08,29,23,33,14.50
2018,08,29,23,34,8.10
2018,08,29,23,35,6.40
2018,08,29,23,36,9.60
2018,08,29,23,37,8.10
2018,08,29,23,38,6.40
2018,08,29,23,39,9.60
2018,08,29,23,40,17.70
2018,08,29,23,41,6.40
2018,08,29,23,42,11.30
2018,08,29,23,43,8.10
2018,08,29,23,44,4.80
2018,08,29,23,45,16.10
2018,08,29,23,46,9.60
2018,08,29,23,47,4.80
2018,08,29,23,48,3.20
2018,08,29,23,52,14.50
2018,08,29,23,53,8.10
2018,08,29,23,54,11.30
2018,08,29,23,55,9.60
2018,08,29,23,56,4.80
2018,08,29,23,57,8.10
2018,08,29,23,58,11.30
2018,08,29,23,59,4.80
